Date String (YYYY-MM-DD hh:mm:ss) UTC,Instrument flags,Ambient pressure (hPa),Sample flow (lpm),Bypass flow (lpm),Sample temperature (°C),Ambient temperature (°C),ASC tube jacket temperature (°C),LED temperature (°C),Box temperature (°C),Sample RH (%),Span deviation,Mass concentration (μg/m³),Mass concentration (μg/m³),Mass concentration (μg/m³)
DateTimeUTC,F1_M11,P_M11,Q1_M11,Q2_M11,T1_M11,T2_M11,T3_M11,T4_M11,T5_M11,U1_M11,ZSPAN_M11,X0_M11,X2_M11,X1_M11
2023-01-16 00:00:00,,0807.8,5.00,0.00,23.8,22.5,00.0,32.6,25.6,14.2,0000.0,0005.37,0003.33,0003.14
2023-01-16 00:01:00,,0807.8,4.99,0.00,23.8,22.5,00.0,32.6,25.6,14.3,0000.0,0005.38,0003.33,0003.13
2023-01-16 00:02:00,,0807.8,5.00,0.00,23.8,22.5,00.0,32.6,25.6,14.3,0000.0,0005.41,0003.33,0003.13
2023-01-16 00:03:00,,0807.8,5.00,0.00,23.8,22.5,00.0,32.6,25.6,14.3,0000.0,0005.31,0003.31,0003.12
2023-01-16 00:04:00,,0807.8,5.01,0.00,23.8,22.5,00.0,32.6,25.6,14.3,0000.0,0004.60,0003.30,0003.12
2023-01-16 00:05:00,,0807.9,5.00,0.00,23.8,22.5,00.0,32.6,25.6,14.3,0000.0,0004.51,0003.30,0003.12
2023-01-16 00:06:00,,0807.9,5.01,0.00,23.8,22.5,00.0,32.6,25.6,14.3,0000.0,0004.41,0003.30,0003.13
2023-01-16 00:07:00,,0808.0,5.00,0.00,23.8,22.5,00.0,32.6,25.6,14.3,0000.0,0004.42,0003.31,0003.14
2023-01-16 00:08:00,,0808.0,5.00,0.00,23.8,22.5,00.0,32.6,25.6,14.3,0000.0,0004.35,0003.32,0003.14
2023-01-16 00:09:00,,0808.0,5.00,0.00,23.8,22.5,00.0,32.6,25.6,14.3,0000.0,0004.35,0003.33,0003.15
2023-01-16 00:10:00,,0808.0,4.99,0.00,23.8,22.5,00.0,32.6,25.6,14.3,0000.0,0004.32,0003.34,0003.16
2023-01-16 00:11:00,,0808.0,5.01,0.00,23.8,22.5,00.0,32.6,25.6,14.2,0000.0,0004.41,0003.36,0003.16
2023-01-16 00:12:00,,0808.0,4.98,0.00,23.8,22.5,00.0,32.6,25.6,14.2,0000.0,0005.02,0003.36,0003.17
2023-01-16 00:13:00,,0808.0,5.00,0.00,23.8,22.5,00.0,32.6,25.6,14.2,0000.0,0005.62,0003.38,0003.18
2023-01-16 00:14:00,,0808.0,5.00,0.00,23.8,22.5,00.0,32.6,25.6,14.3,0000.0,0005.89,0003.41,0003.19
2023-01-16 00:15:00,,0808.0,5.00,0.00,23.8,22.5,00.0,32.6,25.6,14.3,0000.0,0006.04,0003.44,0003.20
2023-01-16 00:16:00,,0808.0,5.00,0.00,23.8,22.4,00.0,32.6,25.6,14.3,0000.0,0006.08,0003.46,0003.20
2023-01-16 00:17:00,,0808.0,4.98,0.00,23.8,22.4,00.0,32.6,25.6,14.4,0000.0,0006.12,0003.47,0003.20
2023-01-16 00:18:00,,0808.0,5.00,0.00,23.8,22.4,00.0,32.6,25.5,14.5,0000.0,0006.99,0003.47,0003.19
2023-01-16 00:19:00,,0808.0,5.00,0.00,23.8,22.3,00.0,32.6,25.5,14.6,0000.0,0007.44,0003.49,0003.19
2023-01-16 00:20:00,,0808.1,5.00,0.00,23.8,22.3,00.0,32.6,25.5,14.5,0000.0,0007.46,0003.49,0003.19
2023-01-16 00:21:00,,0808.0,5.01,0.00,23.7,22.3,00.0,32.6,25.5,14.5,0000.0,0007.56,0003.48,0003.20
2023-01-16 00:22:00,,0808.0,5.00,0.00,23.7,22.3,00.0,32.6,25.5,14.5,0000.0,0007.42,0003.47,0003.20
2023-01-16 00:23:00,,0808.1,4.99,0.00,23.7,22.3,00.0,32.6,25.5,14.5,0000.0,0006.78,0003.48,0003.20
2023-01-16 00:24:00,,0808.0,5.00,0.00,23.7,22.3,00.0,32.6,25.5,14.5,0000.0,0006.32,0003.48,0003.21
2023-01-16 00:25:00,,0808.1,5.00,0.00,23.7,22.3,00.0,32.6,25.5,14.5,0000.0,0006.01,0003.46,0003.22
2023-01-16 00:26:00,,0808.1,5.01,0.00,23.7,22.3,00.0,32.6,25.5,14.5,0000.0,0005.93,0003.45,0003.22
2023-01-16 00:27:00,,0808.2,5.00,0.00,23.7,22.3,00.0,32.6,25.5,14.5,0000.0,0005.94,0003.46,0003.24
2023-01-16 00:28:00,,0808.1,5.00,0.00,23.7,22.3,00.0,32.5,25.5,14.5,0000.0,0005.92,0003.47,0003.27
2023-01-16 00:29:00,,0808.1,5.02,0.00,23.7,22.3,00.0,32.5,25.5,14.5,0000.0,0005.20,0003.50,0003.29
2023-01-16 00:30:00,,0808.1,4.99,0.00,23.7,22.3,00.0,32.5,25.5,14.5,0000.0,0004.62,0003.52,0003.31
2023-01-16 00:31:00,,0808.1,5.00,0.00,23.7,22.3,00.0,32.5,25.5,14.5,0000.0,0004.75,0003.55,0003.33
2023-01-16 00:32:00,,0808.1,4.99,0.00,23.7,22.3,00.0,32.5,25.5,14.5,0000.0,0004.57,0003.58,0003.35
2023-01-16 00:33:00,,0808.1,5.01,0.00,23.7,22.3,00.0,32.5,25.5,14.4,0000.0,0004.79,0003.62,0003.39
2023-01-16 00:34:00,,0808.1,5.01,0.00,23.7,22.3,00.0,32.5,25.5,14.4,0000.0,0004.96,0003.65,0003.43
2023-01-16 00:35:00,,0808.1,5.01,0.00,23.7,22.3,00.0,32.5,25.5,14.5,0000.0,0005.06,0003.70,0003.48
2023-01-16 00:36:00,,0808.1,4.99,0.00,23.7,22.3,00.0,32.5,25.5,14.5,0000.0,0005.15,0003.73,0003.50
2023-01-16 00:37:00,,0808.2,4.99,0.00,23.7,22.3,00.0,32.5,25.5,14.5,0000.0,0005.22,0003.75,0003.52
2023-01-16 00:38:00,,0808.2,5.00,0.00,23.7,22.4,00.0,32.5,25.5,14.5,0000.0,0005.32,0003.77,0003.54
2023-01-16 00:39:00,,0808.2,5.00,0.00,23.7,22.4,00.0,32.5,25.5,14.6,0000.0,0005.70,0003.80,0003.54
2023-01-16 00:40:00,,0808.2,5.00,0.00,23.7,22.4,00.0,32.5,25.5,14.6,0000.0,0005.72,0003.79,0003.54
2023-01-16 00:41:00,,0808.2,5.01,0.00,23.7,22.4,00.0,32.5,25.5,14.7,0000.0,0005.69,0003.77,0003.52
2023-01-16 00:42:00,,0808.2,5.00,0.00,23.7,22.4,00.0,32.5,25.5,14.8,0000.0,0005.75,0003.75,0003.49
2023-01-16 00:43:00,,0808.2,4.99,0.00,23.7,22.4,00.0,32.5,25.5,14.7,0000.0,0006.02,0003.74,0003.48
2023-01-16 00:44:00,,0808.3,5.00,0.00,23.7,22.4,00.0,32.5,25.5,14.8,0000.0,0006.39,0003.70,0003.45
2023-01-16 00:45:00,,0808.3,5.00,0.00,23.7,22.4,00.0,32.5,25.5,14.8,0000.0,0006.27,0003.67,0003.40
2023-01-16 00:46:00,,0808.3,5.02,0.00,23.7,22.4,00.0,32.5,25.5,14.9,0000.0,0006.36,0003.63,0003.34
2023-01-16 00:47:00,,0808.3,5.00,0.00,23.7,22.4,00.0,32.5,25.5,14.9,0000.0,0006.33,0003.61,0003.30
2023-01-16 00:48:00,,0808.3,4.99,0.00,23.7,22.4,00.0,32.5,25.5,14.8,0000.0,0006.25,0003.57,0003.26
2023-01-16 00:49:00,,0808.3,5.01,0.00,23.7,22.4,00.0,32.5,25.5,14.8,0000.0,0006.05,0003.53,0003.23
2023-01-16 00:50:00,,0808.3,4.99,0.00,23.7,22.4,00.0,32.5,25.5,14.8,0000.0,0005.80,0003.48,0003.20
2023-01-16 00:51:00,,0808.3,5.00,0.00,23.7,22.4,00.0,32.5,25.5,14.8,0000.0,0006.21,0003.47,0003.19
2023-01-16 00:52:00,,0808.3,5.00,0.00,23.7,22.4,00.0,32.5,25.5,14.9,0000.0,0006.12,0003.45,0003.19
2023-01-16 00:53:00,,0808.2,5.00,0.00,23.7,22.4,00.0,32.5,25.5,14.9,0000.0,0006.66,0003.44,0003.19
2023-01-16 00:54:00,,0808.3,5.02,0.00,23.7,22.4,00.0,32.5,25.5,14.9,0000.0,0006.68,0003.42,0003.19
2023-01-16 00:55:00,,0808.3,4.99,0.00,23.7,22.4,00.0,32.5,25.5,14.9,0000.0,0006.16,0003.42,0003.19
2023-01-16 00:56:00,,0808.3,5.01,0.00,23.7,22.4,00.0,32.5,25.5,14.9,0000.0,0006.22,0003.42,0003.19
2023-01-16 00:57:00,,0808.4,5.00,0.00,23.7,22.4,00.0,32.5,25.5,14.9,0000.0,0006.14,0003.43,0003.20
2023-01-16 00:58:00,,0808.4,5.01,0.00,23.7,22.4,00.0,32.5,25.5,14.9,0000.0,0006.12,0003.41,0003.20
2023-01-16 00:59:00,,0808.4,5.01,0.00,23.7,22.4,00.0,32.5,25.6,14.9,0000.0,0006.19,0003.40,0003.19
